Overview Statistics Trail Chart Weather Telemetry Raw packets
 

This is the latest recevied weather packets stored in our database for station/object EB1TR-13. If no packets are shown the sender has not sent any weather packets the latest 10 day(s).

<< 1 2 3 4 5 6 >>
Time Temp. Humidity Pressure Rain* Wind** Luminosity Snow
1788522191 25.56° C 70% 1022 hPa 0 mm - 0 W/m² -
1788521291 25.56° C 70% 1022 hPa 0 mm - 0 W/m² -
1788520391 25.56° C 70% 1022 hPa 0 mm - 0 W/m² -
1788519491 25.56° C 70% 1022 hPa 0 mm - 0 W/m² -
1788518591 25.56° C 70% 1022 hPa 0 mm - 0 W/m² -
1788517691 25.56° C 70% 1023 hPa 0 mm - 0 W/m² -
1788516791 25.56° C 70% 1023 hPa 0 mm - 0 W/m² -
1788515891 25.56° C 70% 1022 hPa 0 mm - 0 W/m² -
1788514991 22.78° C 88% 1022 hPa 0 mm - 0 W/m² -
1788514091 22.78° C 86% 1022 hPa 0 mm - 0 W/m² -
1788513191 22.22° C 86% 1021 hPa 0 mm - 0 W/m² -
1788512291 22.22° C 84% 1021 hPa 0 mm - 0 W/m² -
1788511391 21.11° C 88% 1021 hPa 0 mm - 0 W/m² -
1788510491 21.11° C 88% 1021 hPa 0 mm - 0 W/m² -
1788509591 21.11° C 83% 1021 hPa 0 mm - 0 W/m² -
1788508691 20.56° C 84% 1021 hPa 0 mm - 0 W/m² -
1788507791 20° C 86% 1021 hPa 0 mm - 0 W/m² -
1788506891 18.89° C 91% 1020 hPa 0 mm - 0 W/m² -
1788505991 18.89° C 89% 1020 hPa 0 mm - 0 W/m² -
1788505091 18.33° C 91% 1020 hPa 0 mm - 0 W/m² -
1788504191 17.78° C 92% 1020 hPa 0 mm - 0 W/m² -
1788503291 17.78° C 94% 1020 hPa 0 mm - 0 W/m² -
1788502391 17.78° C 94% 1020 hPa 0 mm - 0 W/m² -
1788501491 18.33° C 94% 1020 hPa 0 mm - 0 W/m² -
1788500591 18.33° C 94% 1020 hPa 0 mm - 0 W/m² -

* Rain latest hour (hover to see other rain measurements)
** Current wind speed in m/s (hover to see current wind gust speed)